Showing default

ITAMSAT, 22826

Orbit data source: Space-Track

ITAMSAT, 22826 is a payload satellite owned by Satellife (IT) in SSO that was launched on Sun, 26 Sep 1993 UTC via an ARIANE 40 launch vehicle from the French Guiana (FRGUI). Payload-class satellites include a variety of spacecraft equipped with specific instruments for various scientific and technological missions. These include communications satellites like Starlink; space stations such as the ISS; scientific satellites like the Hubble; Earth observation satellites from companies like Planet Labs, Umbra, and HawkEye 360; GPS; miniature CubeSats for education and research; and military/defense satellites.

Loading next visibility...
Identifier
22826, 1993-061D
Orbit
SSO
Last TLE update
8 hours ago
Origin
Manufacturer
SSTL
Mission
Partially operational Commercial Communications
Bus & Motor
UOSAT, Unknown motor
Mass
50 kg wet, 50 kg dry
Launch date (UTC)
1993-09-26 (32 years ago)
Launch vehicle
ARIANE 40
Launch site
French Guiana (FRGUI)
Object type
Payload
Rocket body
Debris
Shape & HBR
Box + 1 Ant, 6.5 m
Radar Cross Section
0.597 m², Medium (>0.1 m² and < 1m²)

Expand to show TLE details & history

TLE from 8 hours ago
0 ITAMSAT
1 22826U 93061D   25182.88767348  .00000083  00000-0  48323-4 0  9993
2 22826  98.7303 244.4386 0009532  38.1902 321.9954 14.31219478657208
Epoch: 2025-07-01T21:18Z
TLE epoch observation values (Epoch: 2025-07-01T21:18:14.988Z)
Latitude
-0.00007°
Longitude
4.69948°
Altitude
785.206 km
Speed
7.464 km/s
True Right ascension
16h 17m 45s
True Declination
0° 00' 00"
Sunlit
Object was in full shadow at epoch
Visualization orbit readout
Latitude
-78.01222°
Longitude
51.03842°
Altitude
818.719 km
Speed
7.441 km/s
Apparent Right ascension
04h 06m 49s
Apparent Declination
-71° 09' 32"
Sunlit
Object is in full shadow
Visualization observer readout
Local Sidereal Time
17:00:17
Azimuth
171.895° S
Elevation
-58.024°
Doppler factor
1
Orbital elements
Apogee altitude
791.63 km
Perigee altitude
777.974 km
Semi-major axis
7,162.939 km
Eccentricity
0.00095
Inclination
98.7303°
RAAN
244.4386°
Arg. of periapsis
38.1902°
True anomaly
Unknown
Mean anomaly
321.9954°
Eccentric anomaly
Unknown
Mean motion
3.58019 °/min
Orbital period
100.55 mins
BSTAR
0.000048323
Loading maneuver chart data...
Loading SW <> Apogee altitude chart data...
Loading historical data...
Loading historical data...
Loading historical data...
Loading historical data...
Loading historical data...
Loading historical data...
Loading historical data...

ITAMSAT Visibility forecast

Observer location: undefined°, undefined°

Span
Click to sort rows by Start time (UTC) header in descending order
Start Az.
Max El. time (UTC)
Max El. Az.
Max El.
End time (UTC)
End Az.
8 mins2025-07-02 16:20:44.952Z34.044° NE2025-07-02 16:24:44.952Z91.333° ESE30.252°2025-07-02 16:28:44.952Z158.266° S
6 mins2025-07-02 18:01:44.952Z334.402° NNW2025-07-02 18:03:44.952Z303.224° NW24.121°2025-07-02 18:07:44.952Z243.089° WSW
8 mins2025-07-03 03:38:44.952Z138.718° SSE2025-07-03 03:41:44.952Z81.384° E37.712°2025-07-03 03:46:44.952Z357.553° N
|